Tracking 30166 objects as of 22-Jan-2025
HD Live streaming from Space Station
objects crossing your sky now

STARLINK-32639

Track STARLINK-32639 now!
10-day predictions
STARLINK-32639 is classified as:


NORAD ID: 62153
Int'l Code: 2024-224Q
Perigee: 474.7 km
Apogee: 478.7 km
Inclination: 43.0 °
Period: 94.0 minutes
Semi major axis: 6847 km
RCS: Unknown
Launch date: November 30, 2024
Source: (USA)
Launch site: AIR FORCE EASTERN TEST RANGE (AFETR)
Your satellite tracking list
Your tracking list is empty




NASA's NSSDC Master Catalog

Two Line Element Set (TLE):
1 62153U 24224Q   25021.89483726 -.00000713  00000-0 -13813-4 0  9991
2 62153  43.0098 331.2829 0002958 274.8204  85.2312 15.32092460  9251
Source of the keplerian elements: AFSPC